Weather History for Carmi, IL

Change the Weather History Date:

Wednesday, February 5, 2014

  Actual Average (KEVV) Record (KEVV)
Temperature  
Mean Temperature 26 °F 34 °F  
Max Temperature 31 °F 43 °F 70 °F (2008)
Min Temperature 20 °F 25 °F -12 °F (1966)
Degree Days  
Heating Degree Days 40 31  
Month to date heating degree days 156  
Since 1 July heating degree days 2935  
Cooling Degree Days 0 0  
Month to date cooling degree days 0  
Year to date cooling degree days 0  
Moisture  
Dew Point 24 °F    
Average Humidity 90    
Maximum Humidity 100    
Minimum Humidity 82    
Precipitation  
Precipitation 0.00 in 0.11 in 2.73 in (2008)
Month to date precipitation 0.60  
Year to date precipitation 3.70  
Snow  
Snow 0.00 in 0.10 in 2.20 in (1980)
Month to date snowfall 0.7  
Since 1 July snowfall 7.6  
Snow Depth -    
Sea Level Pressure  
Sea Level Pressure 30.21 in    
Wind  
Wind Speed 12 mph (WNW)    
Max Wind Speed 20 mph    
Max Gust Speed 25 mph    
Visibility 7 miles    
Events Snow    
T = Trace of Precipitation, MM = Missing Value Source: NWS Daily Summary

Daily Weather History Graph

Daily Weather History Graph

Search for Another Location

Airport:

Trip Planner

Search our weather history database for the weather conditions in past years. The results will help you decide how hot, cold, wet, or windy it might be!

Date:

Astronomy

Feb. 05, 2014 Rise Set
Actual Time 6:53 AM CST 5:20 PM CST
Civil Twilight 6:25 AM CST 5:47 PM CST
Nautical Twilight 5:54 AM CST 6:18 PM CST
Astronomical Twilight 5:23 AM CST 6:49 PM CST
Moon 10:14 AM CST (2/5) No Moon Set
Length of Visible Light 11h 21m
Length of Day
10h 26m
Waxing Crescent, 39% of the Moon is Illuminated
Feb 5
Waxing Crescent
Feb 6
First Quarter
Feb 14
Full
Feb 22
Last Quarter
Mar 1
New

Hourly Weather History & Observations

Time (CST) Temp. Windchill Dew Point Humidity Pressure Visibility Wind Dir Wind Speed Gust Speed Precip Events Conditions
12:15 AM 31.8 °F 25.4 °F 31.8 °F 100% 29.86 in 2.5 mi WNW 6.9 mph - N/A   Overcast
12:35 AM 31.5 °F 24.2 °F 31.5 °F 100% 29.84 in 2.0 mi NW 8.1 mph - N/A   Overcast
12:55 AM 30.9 °F 23.5 °F 30.9 °F 100% 29.84 in 2.0 mi NW 8.1 mph - N/A   Overcast
1:15 AM 30.7 °F 24.1 °F 30.7 °F 100% 29.82 in 2.0 mi NNW 6.9 mph - N/A   Overcast
1:35 AM 30.2 °F 21.9 °F 30.2 °F 100% 29.84 in 3.0 mi WNW 9.2 mph - N/A   Overcast
1:55 AM 29.7 °F 20.7 °F 29.7 °F 100% 29.85 in 4.0 mi WNW 10.4 mph - N/A   Overcast
2:15 AM 29.5 °F 19.9 °F 29.5 °F 100% 29.86 in 5.0 mi WNW 11.5 mph - N/A   Overcast
2:35 AM 29.1 °F 18.9 °F 28.9 °F 99% 29.87 in 5.0 mi WNW 12.7 mph - N/A   Overcast
2:55 AM 28.8 °F 19.0 °F 28.6 °F 99% 29.89 in 2.5 mi WNW 11.5 mph - N/A   Overcast
3:15 AM 28.2 °F 18.3 °F 27.9 °F 99% 29.89 in 2.0 mi WNW 11.5 mph - N/A Snow Light Snow
3:35 AM 27.5 °F 16.8 °F 26.6 °F 96% 29.90 in 5.0 mi WNW 12.7 mph - N/A   Overcast
3:55 AM 27.0 °F 16.7 °F 26.1 °F 96% 29.91 in 5.0 mi WNW 11.5 mph 17.3 mph N/A   Overcast
4:15 AM 26.4 °F 18.0 °F 25.7 °F 97% 29.92 in 3.0 mi WNW 8.1 mph - N/A   Overcast
4:35 AM 25.3 °F 15.3 °F 24.4 °F 96% 29.94 in 5.0 mi NW 10.4 mph - N/A   Overcast
4:55 AM 25.3 °F 14.7 °F 24.4 °F 96% 29.95 in 7.0 mi WNW 11.5 mph - N/A   Overcast
5:15 AM 25.0 °F 16.3 °F 24.1 °F 96% 29.96 in 10.0 mi WNW 8.1 mph - N/A   Overcast
5:35 AM 24.8 °F 14.6 °F 23.9 °F 96% 29.97 in 7.0 mi West 10.4 mph - N/A   Overcast
5:55 AM 24.8 °F 14.6 °F 23.7 °F 96% 29.99 in 10.0 mi West 10.4 mph - N/A   Overcast
6:15 AM 24.8 °F 13.4 °F 23.7 °F 96% 30.00 in 7.0 mi West 12.7 mph - N/A   Overcast
6:35 AM 24.8 °F 13.4 °F 23.2 °F 94% 30.02 in 10.0 mi West 12.7 mph - N/A   Overcast
6:55 AM 24.8 °F 14.0 °F 23.0 °F 93% 30.04 in 10.0 mi West 11.5 mph - N/A   Overcast
7:15 AM 24.8 °F 13.4 °F 23.0 °F 93% 30.05 in 10.0 mi West 12.7 mph - N/A   Overcast
7:35 AM 24.8 °F 14.0 °F 23.0 °F 93% 30.08 in 7.0 mi West 11.5 mph 18.4 mph N/A   Overcast
7:55 AM 24.8 °F 14.0 °F 23.0 °F 93% 30.10 in 10.0 mi West 11.5 mph - N/A   Overcast
8:15 AM 25.2 °F 13.3 °F 23.0 °F 91% 30.11 in 10.0 mi West 13.8 mph - N/A   Overcast
8:35 AM 25.5 °F 13.3 °F 23.0 °F 90% 30.13 in 7.0 mi West 15.0 mph - N/A Snow Light Snow
8:55 AM 25.7 °F 13.1 °F 23.5 °F 92% 30.14 in 5.0 mi WNW 16.1 mph - N/A Snow Light Snow
9:15 AM 26.4 °F 14.5 °F 23.7 °F 90% 30.15 in 5.0 mi WNW 15.0 mph 23.0 mph N/A Snow Light Snow
9:35 AM 26.6 °F 13.8 °F 23.9 °F 90% 30.17 in 5.0 mi WNW 17.3 mph 21.9 mph N/A Snow Light Snow
9:55 AM 27.3 °F 16.6 °F 24.4 °F 89% 30.18 in 7.0 mi WNW 12.7 mph - N/A Snow Light Snow
10:15 AM 27.3 °F 14.0 °F 24.4 °F 89% 30.19 in 5.0 mi WNW 19.6 mph 24.2 mph N/A Snow Light Snow
10:35 AM 27.5 °F 15.9 °F 24.8 °F 90% 30.21 in 4.0 mi WNW 15.0 mph 19.6 mph N/A Snow Light Snow
10:55 AM 27.7 °F 15.6 °F 24.4 °F 88% 30.22 in 4.0 mi WNW 16.1 mph 21.9 mph N/A   Overcast
11:15 AM 28.2 °F 15.5 °F 24.6 °F 86% 30.22 in 5.0 mi WNW 18.4 mph 21.9 mph N/A   Overcast
11:35 AM 28.2 °F 15.5 °F 24.3 °F 85% 30.23 in 7.0 mi WNW 18.4 mph 25.3 mph N/A   Overcast
11:55 AM 28.4 °F 17.0 °F 24.4 °F 85% 30.22 in 7.0 mi NW 15.0 mph 24.2 mph N/A   Overcast
12:15 PM 28.4 °F 16.6 °F 24.6 °F 86% 30.22 in 7.0 mi NW 16.1 mph 20.7 mph N/A   Overcast
12:35 PM 28.8 °F 18.4 °F 24.8 °F 85% 30.23 in 7.0 mi WNW 12.7 mph 19.6 mph N/A   Overcast
12:55 PM 28.9 °F 18.6 °F 25.2 °F 86% 30.23 in 7.0 mi WNW 12.7 mph 21.9 mph N/A   Overcast
1:15 PM 29.3 °F 20.2 °F 25.5 °F 86% 30.24 in 7.0 mi WNW 10.4 mph 20.7 mph N/A   Overcast
1:35 PM 28.9 °F 17.3 °F 24.8 °F 84% 30.25 in 10.0 mi NW 16.1 mph 25.3 mph N/A   Overcast
1:55 PM 29.1 °F 17.1 °F 24.6 °F 83% 30.26 in 10.0 mi NW 17.3 mph 23.0 mph N/A   Overcast
2:15 PM 29.1 °F 17.9 °F 24.6 °F 83% 30.27 in 10.0 mi NW 15.0 mph 20.7 mph N/A   Overcast
2:35 PM 29.1 °F 17.5 °F 24.8 °F 84% 30.28 in 7.0 mi NW 16.1 mph - N/A   Overcast
2:55 PM 28.9 °F 18.2 °F 24.4 °F 83% 30.29 in 7.0 mi NW 13.8 mph 21.9 mph N/A   Overcast
3:15 PM 28.8 °F 17.0 °F 24.6 °F 84% 30.30 in 7.0 mi NW 16.1 mph 20.7 mph N/A   Overcast
3:35 PM 28.4 °F 17.0 °F 23.9 °F 83% 30.32 in 10.0 mi NW 15.0 mph 21.9 mph N/A   Overcast
3:55 PM 28.4 °F 16.2 °F 23.7 °F 83% 30.33 in 10.0 mi NW 17.3 mph 23.0 mph N/A   Overcast
4:15 PM 27.9 °F 15.9 °F 23.0 °F 82% 30.35 in 10.0 mi NW 16.1 mph 21.9 mph N/A   Overcast
4:35 PM 27.5 °F 15.0 °F 23.0 °F 83% 30.36 in 10.0 mi NW 17.3 mph - N/A   Overcast
4:55 PM 27.3 °F 17.1 °F 23.0 °F 84% 30.38 in 10.0 mi NW 11.5 mph - N/A   Overcast
5:15 PM 27.1 °F 15.9 °F 22.5 °F 83% 30.39 in 10.0 mi NW 13.8 mph - N/A   Overcast
5:35 PM 26.8 °F 15.4 °F 22.6 °F 84% 30.40 in 10.0 mi WNW 13.8 mph 17.3 mph N/A   Overcast
5:55 PM 26.1 °F 14.5 °F 22.6 °F 87% 30.41 in 7.0 mi WNW 13.8 mph 17.3 mph N/A   Overcast
6:15 PM 25.7 °F 13.5 °F 22.6 °F 88% 30.42 in 7.0 mi WNW 15.0 mph - N/A   Overcast
6:18 PM 24.8 °F 14.6 °F 21.2 °F 86% 30.42 in 7.0 mi WNW 10.4 mph - N/A   Overcast
6:35 PM 25.3 °F 14.1 °F 22.3 °F 88% 30.43 in 7.0 mi WNW 12.7 mph 18.4 mph N/A Snow Light Snow
6:55 PM 24.6 °F 11.7 °F 22.1 °F 90% 30.43 in 7.0 mi WNW 16.1 mph - N/A Snow Light Snow
7:15 PM 24.3 °F 12.2 °F 21.6 °F 89% 30.44 in 7.0 mi WNW 13.8 mph 19.6 mph N/A Snow Light Snow
7:35 PM 23.9 °F 12.9 °F 21.2 °F 89% 30.45 in 7.0 mi WNW 11.5 mph - N/A Snow Light Snow
7:55 PM 23.9 °F 11.2 °F 20.8 °F 88% 30.47 in 10.0 mi WNW 15.0 mph 23.0 mph N/A   Overcast
8:15 PM 23.7 °F 11.0 °F 20.1 °F 86% 30.48 in 10.0 mi NW 15.0 mph 21.9 mph N/A   Overcast
8:35 PM 23.4 °F 12.2 °F 20.1 °F 87% 30.48 in 10.0 mi WNW 11.5 mph - N/A   Overcast
8:55 PM 23.0 °F 11.1 °F 19.4 °F 86% 30.49 in 10.0 mi WNW 12.7 mph - N/A   Overcast
9:15 PM 22.6 °F 10.1 °F 19.4 °F 87% 30.50 in 10.0 mi WNW 13.8 mph - N/A   Overcast
9:35 PM 22.1 °F 11.3 °F 18.5 °F 86% 30.50 in 10.0 mi NW 10.4 mph 19.6 mph N/A   Overcast
9:55 PM 21.9 °F 9.8 °F 18.0 °F 85% 30.51 in 10.0 mi NW 12.7 mph 17.3 mph N/A   Overcast
10:15 PM 21.6 °F 8.2 °F 17.6 °F 85% 30.50 in 10.0 mi WNW 15.0 mph 18.4 mph N/A   Overcast
10:35 PM 21.2 °F 9.5 °F 17.6 °F 86% 30.50 in 10.0 mi NW 11.5 mph - N/A   Overcast
10:55 PM 21.0 °F 7.6 °F 17.2 °F 85% 30.50 in 10.0 mi NW 15.0 mph - N/A   Overcast
11:15 PM 20.8 °F 9.0 °F 16.7 °F 84% 30.51 in 10.0 mi WNW 11.5 mph 18.4 mph N/A   Overcast
11:35 PM 21.0 °F 9.3 °F 17.1 °F 85% 30.51 in 10.0 mi WNW 11.5 mph 17.3 mph N/A   Overcast
11:55 PM 20.3 °F 8.3 °F 16.7 °F 86% 30.51 in 10.0 mi WNW 11.5 mph - N/A   Overcast